Location: Dürabuch
(48.2640°N, 11.2185°E)
Time: 03:56:31
(UTC+00:00)

DELTA 2 R/B (1) - Pass Details

Date: 23 May 2024
Orbit: 788 x 802 km, 39.6° (Epoch: 13 June)

Event Time Altitude Azimuth Distance (km) Brightness Sun altitude
Exits shadow 02:07:01 10° 252° (WSW) 2,391 5.5 -10.8°
Reaches altitude 10° 02:07:08 10° 252° (WSW) 2,355 5.5 -10.7°
Maximum altitude 02:11:50 29° 194° (SSW) 1,423 4.4 -10.2°
Drops below altitude 10° 02:16:31 10° 135° (SE) 2,344 6.0 -9.7°
Sets 02:19:16 0° 125° (SE) 3,270 6.9 -9.4°
